User: anonymous   Login
Location: Unspecified
(0.0000°N, 0.0000°E)
Time: 00:56:47
(UTC+00:00)
Language:

BEESAT 4 - Orbit

View from above orbital plane
View from above orbital plane
View from above satellite
View from above satellite

Ground track
Ground track

The orbit data is extracted from the following two-line orbital elements,

1 41619U 16040W   21023.13665971  .00001581  00000-0  66420-4 0  9995
2 41619  97.2919  83.1966 0012333 121.0465 239.1986 15.24817654242867
Epoch (UTC): 23 January 2021 03:16:47
Eccentricity: 0.0012333
inclination: 97.2919°
perigee height: 483 km
apogee height: 500 km
right ascension of ascending node: 83.1966°
argument of perigee: 121.0465°
revolutions per day: 15.24817654
mean anomaly at epoch: 239.1986°
orbit number at epoch: 24286

The dashed part of the orbit path shows where the satellite is in the earth's shadow,  

DLR